Preview of NWS' New Version of Forecast
This preview is not operational and should not be used for support decisions.

Regional Weather Roundup (RWR)

Issued by New York, NY (OKX)

                            
000
ASUS41 KOKX 160806
RWROKX

Regional Weather Roundup
National Weather Service New York NY
400 AM EDT TUE OCT 16 2018

Note: "FAIR" indicates few or no clouds below 12,000 feet with no
significant weather and/or obstructions to visibility.

NYZ071-072-176-178-NJZ106-104-160900-
New York City Metro Area
  
CITY           SKY/WX    TMP DP  RH WIND       PRES   REMARKS
Central Park   FAIR      55  42  61 MISG      30.03R                  
Bronx Lehman C   N/A     54  41  62 NW12G23     N/A                   
LaGuardia Arpt MOCLDY    58  44  60 NW16G29   30.00R                  
Queens College   N/A     55  43  62 NW15G26     N/A                   
Kennedy Intl   MOCLDY    56  44  64 NW23G29   30.01R                  
Breezy Point     N/A     55 N/A N/A NW15G24     N/A                   
Brooklyn Coll    N/A     55  41  58 W15G29      N/A                   
Staten Island    N/A     55  41  58 NW10        N/A                   
Newark/Liberty CLOUDY    55  42  61 NW18      30.01R                  
Teterboro      FAIR      55  43  63 NW9       30.01R                  
$$
 
NYZ177-179-078>081-160900-
Long Island New York
  
CITY           SKY/WX    TMP DP  RH WIND       PRES   REMARKS
Jones Beach      N/A     57 N/A N/A NW17G25     N/A                   
Wantagh          N/A     57  43  58 NW14        N/A                   
Hempstead        N/A     55  46  71 NW10      30.02R                  
Matinecock Pt    N/A     55 N/A N/A NW25G33     N/A                   
Farmingdale    FAIR      55  42  61 NW12G28   29.99R                  
MacArthur/ISP  FAIR      56  42  59 NW24G38   29.97R                  
Stony Brook      N/A     55  43  62 NW15G28     N/A                   
Shirley        FAIR      57  45  64 NW18G28   29.96R                  
Mt Sinai Harb    N/A    N/A N/A N/A NW16G24     N/A                   
Westhampton    MOCLDY    58  43  57 NW17G31   29.95R                  
East Hampton   MOCLDY    58  45  62 NW15G29   29.93R                  
Southold         N/A     57  46  67 NW17G31     N/A                   
Montauk          N/A     58  53  84 NW17G28   29.94R                  
$$
 
NYZ052-065-067-160900-
Hudson Valley
  
CITY           SKY/WX    TMP DP  RH WIND       PRES   REMARKS
White Plains   FAIR      51  37  58 NW25G32   29.99R                  
Larchmont Harb   N/A     54 N/A N/A W23G29      N/A                   
Croton On Huds   N/A     54 N/A N/A NW20        N/A                   
Somers           N/A     48  37  66 NW14G31     N/A                   
Brewster         N/A     48  36  61 NW9         N/A                   
Newburgh       CLEAR     46  36  66 NW14G23   30.05R                  
Montgomery     FAIR      48  34  58 NW10      30.05R                  
Otisville        N/A     45  32  61 NW10        N/A                   
Warwick          N/A     46  36  66 NW15        N/A                   
Suffern          N/A     48  36  61 NW9         N/A                   
Poughkeepsie   FAIR      49  29  46 W17G24    30.03R                  
Albany         FAIR      43  28  55 W7        30.05S                  
$$
 
NJZ001-105-106-008-010-013-015-019>022-104-160900-
New Jersey
  
CITY           SKY/WX    TMP DP  RH WIND       PRES   REMARKS
Newark/Liberty CLOUDY    55  42  61 NW18      30.01R                  
Teterboro      FAIR      55  43  63 NW9       30.01R                  
Caldwell       FAIR      53  41  63 NW15G22   30.04R                  
Somerville     FAIR      54  40  59 NW10      30.02R                  
Linden         FAIR      56  41  58 NW17      30.02R                  
Perth Amboy      N/A     57 N/A N/A NW14        N/A                   
Sussex         FAIR      49  36  61 VRB7      30.06R                  
Andover          N/A     50  39  66 N6        30.05R                  
Trenton        FAIR      55  44  66 VRB7      30.05R                  
Millville      CLOUDY    58  48  69 NW10      30.07R                  
Atlantic City  CLOUDY    59  55  87 W7        30.05R                  
Wrightstown    CLOUDY    56  44  63 NW12      30.01                   
Toms River     MOCLDY    57  46  66 NW14      30.04R                  
Belmar         FAIR      57  46  66 NW12      30.03R                  
$$
 
PAZ047>061-062-071-160900-
Eastern Pennsylvania
  
CITY           SKY/WX    TMP DP  RH WIND       PRES   REMARKS
Philadelphia   CLOUDY    57  41  55 NW15      30.08R                  
Allentown      FAIR      53  36  52 NW9       30.08R                  
Scranton       FAIR      44  31  60 NW13G24   30.11R                  
$$

CTZ002-004>006-009-010-012-RIZ004-006-007-MAZ004-011-015-160900-
Southern New England

 In CT
  
CITY           SKY/WX    TMP DP  RH WIND       PRES   REMARKS
Bradley Intl   FAIR      48  34  58 NW20G26   29.99R                  
Hartford       FAIR      51  36  56 N12       29.98R                  
Danbury        FAIR      50  36  58 W12G22    30.00R                  
Wtrbury/Oxford FAIR      50  43  77 N14       29.97R                  
Norwalk Harbor   N/A     54 N/A N/A NW15G21     N/A                   
Bridgeport     FAIR      56  39  53 NW18G28   29.97R                  
Meriden        FAIR      52  38  58 N16G22    29.98R                  
New Haven      FAIR      57  42  57 NW13G25   29.96R                  
Chester        FAIR      52  43  71 NW17G28   29.94R                  
Groton         FAIR      55  47  74 NW18G28   29.92R                  
Willimantic    FAIR      50  39  66 NW16G25   29.95R                  

 In RI
  
CITY           SKY/WX    TMP DP  RH WIND       PRES   REMARKS
Providence     FAIR      53  40  61 W23G32    29.89R                  
Block Island   CLOUDY    57  51  80 NW17G26   29.92R                  
Westerly       FAIR      55  48  77 NW12G22   29.92R                  
 
In MA
  
CITY           SKY/WX    TMP DP  RH WIND       PRES   REMARKS
Boston         MOCLDY    54  35  48 NW28G36   29.86R                  
Worcester      FAIR      44  29  55 W20G39    29.90R                  
Westfield      FAIR      46  29  51 NW14G37   29.98R                  
Provincetown   MOCLDY    56  46  69 NW29G37   29.83R                  
Nantucket      RAIN      55  52  89 NW20G35   29.86R FOG              
$$

ANZ330-335-338-340-345-350-353-355-160900-
Coastal Marine Observations

  
STATION/POSITION TIME  SKY/WX   TEMP    WIND        PRES    VSBY  WAVE
                                AIR SEA DIR/SP/G                  HT/PER
                 (UTC)          (F)     (DEG/KT/KT) (MB)    (MI)  (FT/S)
NY Harb Entrance 0750            61     320/ 25/ 31 1015.4          5/ 8
20 S Fire Island 0750            62 66  320/ 25/ 31 1014.8          8/ 8
Great South Bay  0730            59 63  310/ 19/ 23   N/A
23 SSW Montauk P 0750            61 65  290/ 23/ 27 1013.2          8/ 7
15 E Barnegat Li 0800               70                N/A           7/ 5
Hudson Canyon    0750            62     310/ 27/ 35 1014.9          9/ 8
Kings Point      0748            57 67   10/ 20/ 24 1017.0
Execution Rocks  0730               67  310/ 17/ 23   N/A
Western LI Sound 0650            59     300/ 19/ 27   N/A           2/ 3
Central LI Sound 0715            61 68  300/ 21/ 27   N/A           5/ 6
Robbins Reef     0748            57     320/ 19/ 24 1016.7
$$


>>>>>>>>>>>>>>>>>>>>>>>>>>>> KEY <<<<<<<<<<<<<<<<<<<<<<<<<<<
>                                                          <
>     SKY/WX - Sky Condition/Present Weather               <
>     TMP    - Temperature in Fahrenheit                   <
>     DP     - Dew Point in Fahrenheit                     <
>     RH     - Relative Humidity in Percent                <
>     WIND   - Direction (from) and Speed in MPH           <
>     PRES   - Mean Sea Level Pressure (inches of Hg)      <
>     WCI    - Wind Chill Index                            <
>     VSB    - Visibility in Miles                         <
>     HX     - Heat Index                                  <
>     TC     - Temperature in Celsius                      <
>     VRB    - Variable Wind Direction                     <
>                                                          <
>>>>>>>>>>>>>>>>>>>>>>>>>>>> KEY <<<<<<<<<<<<<<<<<<<<<<<<<<<